#timestamp,LO_Frequency,Hit,StdDev 
1652176815.6,286047001.0,P
1652176835.4,286047000.5,N
1652176855.3,286046999.7,N
1652176875.1,286047000.9,N
1652176895.8,286047000.9,N
1652176915.7,286047000.1,N
1652176935.5,286047000.3,N
1652176955.4,286047000.8,N
1652176975.2,286047000.0,N
1652176995.0,286047000.4,N
1652176995.9,286047000.4,N
1652177015.8,286047000.0,N
1652177035.6,286047000.3,N
1652177055.5,286047000.4,N
1652177075.3,286047000.8,N
1652177095.1,286046998.4,Y
1652177115.9,286047001.2,P
1652177135.7,286046998.5,P
1652177155.6,286046999.3,N
1652177175.4,286046998.7,N
1652177195.2,286046999.5,N
1652177215.1,286046998.1,N
1652177216.0,286046998.1,N
1652177235.8,286046998.3,N
1652177255.6,286046998.6,N
1652177275.5,286046998.4,N
1652177295.3,286046998.7,N
1652177315.2,286046998.8,N
1652177335.9,286046999.2,N
1652177355.7,286046999.2,N
1652177375.6,286046998.2,N
1652177395.4,286046998.8,N
1652177415.2,286046998.3,N
1652177435.1,286046998.3,N
1652177436.0,286046998.3,N
1652177455.8,286047000.8,N
1652177475.7,286047000.2,N
1652177495.5,286047001.0,N
1652177515.3,286047000.8,N
1652177535.2,286046998.8,N
1652177555.0,286046998.2,N
1652177555.9,286046998.2,N
1652177575.8,286047001.2,N
1652177595.6,286046998.1,N
1652177615.4,286046998.7,N
1652177635.3,286046999.3,N
1652177655.1,286046996.6,Y
1652177675.8,286046998.6,P
1652177695.7,286046999.5,N
1652177715.5,286046998.9,P
1652177735.4,286047000.8,N
1652177755.2,286046998.2,N
1652177775.0,286046998.4,N
1652177775.9,286046998.4,N
1652177795.8,286046998.1,N
1652177815.6,286046999.3,N
1652177835.5,286046997.3,Y
1652177855.3,286046996.8,P
1652177875.1,286046999.3,N
1652177895.9,286046999.1,N
1652177915.7,286046999.3,N
1652177935.5,286046999.2,N
1652177955.4,286046999.1,N
1652177975.2,286046999.3,N
1652177995.1,286046998.9,N
1652177996.0,286046998.9,N
1652178015.8,286046999.3,N
1652178035.6,286046996.5,Y
1652178055.5,286046998.8,P
1652178075.3,286046999.2,P
1652178095.1,286046997.3,P
1652178115.9,286046996.9,Y
1652178135.7,286046998.5,P
1652178155.6,286046998.2,P
1652178175.4,286047001.1,P
1652178195.2,286047000.7,N
1652178215.1,286047000.7,N
1652178216.0,286047000.7,N
1652178235.8,286047001.2,N
1652178255.7,286046998.3,N
1652178275.5,286046999.5,N
1652178295.3,286046997.3,N
1652178315.2,286046996.9,N
1652178335.0,286046998.0,N
1652178335.9,286046998.0,N
1652178355.7,286046997.5,N
1652178375.6,286046997.8,N
1652178395.4,286046996.2,N
1652178415.3,286046996.1,N
1652178435.1,286046995.7,N
1652178436.0,286046995.7,N
1652178455.8,286046995.3,N
1652178475.7,286046995.3,N
1652178495.5,286046995.8,N
1652178515.3,286046995.1,N
1652178535.2,286046995.6,N
1652178555.0,286046995.1,N
1652178555.9,286046995.1,N
1652178575.8,286046996.2,N
1652178595.6,286046994.2,N
1652178615.4,286046994.8,N
1652178635.3,286046994.3,N
1652178655.1,286046993.7,N
1652178675.8,286046996.0,N
1652178695.7,286046994.0,N
1652178715.5,286046993.6,Y
1652178735.4,286046996.6,P
1652178755.2,286046996.7,P
1652178775.0,286046997.3,P
1652178775.9,286046997.3,Y
1652178795.8,286046998.1,P
1652178815.6,286046998.8,N
1652178835.5,286046997.0,P
1652178855.3,286046996.8,Y
1652178875.1,286047000.1,P
1652178895.9,286046999.8,N
1652178915.7,286046999.7,N
1652178935.5,286046998.5,N
1652178955.4,286046998.2,N
1652178975.2,286047000.0,N
1652178995.1,286046999.9,N
1652178996.0,286046999.9,N
1652179015.8,286047000.9,N
1652179035.6,286047000.9,N
1652179055.5,286047000.9,N
1652179075.3,286046998.7,N
1652179095.1,286046998.9,N
1652179115.9,286046998.7,N
1652179135.7,286047000.4,N
1652179155.6,286047021.6,Y
1652179175.4,286047028.7,P
1652179195.2,286047024.1,N
1652179215.1,286047024.7,N
1652179216.0,286047024.7,N
1652179235.8,286047021.6,N
1652179255.7,286047016.4,N
1652179275.5,286047015.2,N
1652179295.3,286047011.6,N
1652179315.2,286047012.3,N
1652179335.0,286047012.4,N
1652179335.9,286047012.4,N
1652179355.7,286047007.8,N
1652179375.6,286047008.9,N
1652179395.4,286047007.2,N
1652179415.3,286047007.6,N
1652179435.1,286047005.3,N
1652179436.0,286047005.3,N
1652179455.8,286047005.3,N
1652179475.7,286047005.8,N
1652179495.5,286047007.5,N
1652179515.3,286047005.2,N
1652179535.2,286047004.8,N
1652179555.0,286047005.6,N
1652179555.9,286047005.6,N
1652179575.8,286047005.2,N
1652179595.6,286047003.2,N
1652179615.4,286047003.2,N
1652179635.3,286047003.7,N
1652179655.1,286047001.3,N
1652179675.9,286047002.2,N
1652179695.7,286046999.8,N
1652179715.5,286046999.9,N
1652179735.4,286047000.0,N
1652179755.2,286047002.4,N
1652179775.1,286047001.5,N
1652179776.0,286047001.5,N
1652179795.8,286047004.4,N
1652179815.6,286047002.1,N
1652179835.5,286047001.7,N
1652179855.3,286046999.9,N
1652179875.1,286047000.2,N
1652179895.9,286047000.3,N
1652179915.7,286046999.7,N
1652179935.6,286047000.2,N
1652179955.4,286047000.0,N
1652179975.2,286047001.0,N
1652179995.1,286047001.1,N
1652179996.0,286047001.1,N
1652180015.8,286047000.7,N
1652180035.6,286047000.4,N
1652180055.5,286047000.7,N
1652180075.3,286047002.2,N
1652180095.2,286047002.7,N
1652180115.9,286047000.1,N
1652180135.7,286046999.9,N
1652180155.6,286047000.3,N
1652180175.4,286046997.1,N
1652180195.2,286046997.7,N
1652180215.1,286046997.4,N
1652180216.0,286046997.4,N
1652180235.8,286046997.1,N
1652180255.7,286046996.6,N
1652180275.5,286046996.7,N
1652180295.3,286046999.6,N
1652180315.2,286046997.4,N
1652180335.0,286046997.4,N
1652180335.9,286046997.4,N
1652180355.8,286046997.4,N
1652180375.6,286046997.7,N
1652180395.4,286046999.2,N
